Hourly Data Report for September 29, 2017

All times are specified in Local Standard Time (LST). Add 1 hour to adjust for Daylight Saving Time where and when it is observed.

PORT ALBERNI (AUT)
BRITISH COLUMBIA

49°18'59.700" N
124°55'36.600" W
76.20 m
1036B06
71475
WQC

Related Data

No related data is available for this station

Download Data

Hourly Data (September 2017)
Hourly Data Report for September 29, 2017
Temp Definition
°C
Dew Point Temp Definition
°C
Rel Hum Definition
%
Wind Dir Definition
10's deg

Wind Spd Definition
km/h
Visibility Definition
km
Stn Press Definition
kPa
Hmdx Definition


Wind Chill Definition


Weather Definition


TIME
00:00 16.0 12.0 77 12 8   100.20     LegendNANA
01:00 16.0 12.1 78 11 13   100.17     LegendNANA
02:00 16.4 12.7 79 9 9   100.21     LegendNANA
03:00 15.8 12.6 82 9 11   100.15     LegendNANA
04:00 15.2 13.0 87 11 12   100.17     LegendNANA
05:00 15.4 12.8 85 9 7   100.18     LegendNANA
06:00 15.4 12.8 85 9 7   100.16     LegendNANA
07:00 15.3 13.0 86 11 6   100.17     LegendNANA
08:00 15.1 13.9 92 17 1   100.18     LegendNANA
09:00 15.1 14.2 95 14 2   100.20     LegendNANA
10:00 15.1 14.2 94 16 4   100.22     LegendNANA
11:00 15.8 14.6 93 10 6   100.24     LegendNANA
12:00 16.6 15.1 91 11 11   100.24     LegendNANA
13:00 16.3 14.5 89 10 10   100.27     LegendNANA
14:00 17.3 14.1 82 10 13   100.29     LegendNANA
15:00 18.3 10.0 58 22 11   100.34     LegendNANA
16:00 17.5 8.1 54 19 13   100.39     LegendNANA
17:00 16.1 4.7 47 25 9   100.46     LegendNANA
18:00 13.9 5.9 59 21 4   100.56     LegendNANA
19:00 11.0 7.6 80 14 4   100.64     LegendNANA
20:00 9.2 7.6 90 6 4   100.69     LegendNANA
21:00 8.5 7.5 94   0   100.72     LegendNANA
22:00 9.8 8.9 95 35 1   100.74     LegendNANA
23:00 9.6 8.8 95 13 3   100.75     LegendNANA

Notes on Data Quality.

Legend

  • E = Estimated
  • M = Missing
  • NA = Not Available
  • ‡ = Partner data that is not subject to review by the National Climate Archives
Date modified: